Lawton, OK

5:57 AM CST on February 13, 2016 (GMT -0600)
Post Army Air Field

Weather History for KFSI - March, 2013

Change the Weather History Date:

Tuesday, March 12, 2013

  Actual Average Record
Temperature  
Mean Temperature 48 °F -  
Max Temperature 59 °F 63 °F 92 °F (1967)
Min Temperature 37 °F 39 °F 6 °F (1948)
Degree Days  
Heating Degree Days 18    
Moisture  
Dew Point 31 °F    
Average Humidity 54    
Maximum Humidity 73    
Minimum Humidity 34    
Precipitation  
Precipitation 0.00 in - - ()
Sea Level Pressure  
Sea Level Pressure 30.18 in    
Wind  
Wind Speed 8 mph (NE)    
Max Wind Speed 16 mph    
Max Gust Speed 24 mph    
Visibility 10 miles    
Events      
Averages and records for this station are not official NWS values.
T = Trace of Precipitation, MM = Missing Value Source: NWS Daily Summary

Daily Weather History Graph

Daily Weather History Graph

Search for Another Location

Airport or City:

Trip Planner

Search our weather history database for the weather conditions in past years. The results will help you decide how hot, cold, wet, or windy it might be!

Date:

Astronomy

Mar. 12, 2013 Rise Set
Actual Time 7:47 AM CDT 7:39 PM CDT
Civil Twilight 7:22 AM CDT 8:04 PM CDT
Nautical Twilight 6:53 AM CDT 8:33 PM CDT
Astronomical Twilight 6:24 AM CDT 9:02 PM CDT
Moon 7:59 AM CDT (3/12) 8:50 PM CDT (3/12)
Length of Visible Light 12h 41m
Length of Day
11h 51m
New Moon, 1% of the Moon is Illuminated
Mar 12
New Moon
Mar 19
First Quarter
Mar 27
Full
Apr 2
Last Quarter
Apr 10
New

Hourly Weather History & Observations

Time (CDT) Temp. Windchill Dew Point Humidity Pressure Visibility Wind Dir Wind Speed Gust Speed Precip Events Conditions
12:58 AM 42.4 °F 39.6 °F 30.0 °F 61% 30.00 in 10.0 mi SE 4.6 mph - N/A   Clear
1:58 AM 41.9 °F 38.2 °F 29.3 °F 61% 30.00 in 10.0 mi East 5.8 mph - N/A   Clear
2:58 AM 40.8 °F 38.8 °F 29.5 °F 64% 30.02 in 10.0 mi East 3.5 mph - N/A   Clear
3:58 AM 37.9 °F 32.7 °F 30.0 °F 73% 30.01 in 10.0 mi NE 6.9 mph - N/A   Clear
4:58 AM 39.4 °F 35.2 °F 28.8 °F 66% 30.02 in 10.0 mi NE 5.8 mph - N/A   Clear
5:58 AM 38.7 °F 31.8 °F 27.5 °F 64% 30.06 in 10.0 mi NE 10.4 mph - N/A   Clear
6:58 AM 38.7 °F 31.4 °F 26.6 °F 62% 30.07 in 10.0 mi NE 11.5 mph - N/A   Clear
7:58 AM 38.8 °F 33.2 °F 26.1 °F 60% 30.12 in 10.0 mi NE 8.1 mph - N/A   Clear
8:58 AM 42.8 °F 35.4 °F 27.1 °F 54% 30.18 in 10.0 mi NNE 15.0 mph - N/A   Clear
9:58 AM 46.6 °F - 25.2 °F 43% 30.21 in 10.0 mi NE 13.8 mph - N/A   Clear
10:18 AM 48.2 °F - 23.0 °F 37% 30.22 in 10.0 mi NE 16.1 mph 24.2 mph N/A   Clear
10:58 AM 50.9 °F - 23.4 °F 34% 30.22 in 10.0 mi ENE 16.1 mph 24.2 mph N/A   Clear
11:58 AM 54.3 °F - 26.1 °F 34% 30.24 in 10.0 mi ENE 12.7 mph - N/A   Clear
12:58 PM 57.2 °F - 32.4 °F 39% 30.24 in 10.0 mi ENE 12.7 mph 20.7 mph N/A   Scattered Clouds
1:58 PM 57.9 °F - 33.1 °F 39% 30.24 in 10.0 mi NE 10.4 mph - N/A   Scattered Clouds
2:58 PM 58.1 °F - 36.3 °F 44% 30.23 in 10.0 mi NE 6.9 mph - N/A   Mostly Cloudy
3:58 PM 58.5 °F - 37.0 °F 45% 30.22 in 10.0 mi NE 10.4 mph - N/A   Partly Cloudy
4:58 PM 58.6 °F - 38.5 °F 47% 30.23 in 10.0 mi NNE 12.7 mph - N/A   Partly Cloudy
5:58 PM 57.7 °F - 37.4 °F 47% 30.25 in 10.0 mi NNE 12.7 mph - N/A   Clear
6:58 PM 56.1 °F - 37.0 °F 49% 30.26 in 10.0 mi NNE 5.8 mph - N/A   Clear
7:58 PM 54.3 °F - 36.1 °F 50% 30.29 in 10.0 mi NNE 2.3 mph - N/A   Clear
8:58 PM 50.7 °F - 36.3 °F 58% 30.31 in 10.0 mi North 2.3 mph - N/A   Clear
9:58 PM 47.5 °F - 37.0 °F 67% 30.31 in 10.0 mi North 5.8 mph - N/A   Clear
10:58 PM 43.5 °F 40.9 °F 35.4 °F 73% 30.32 in 10.0 mi NNE 4.6 mph - N/A   Clear
11:56 PM 44.6 °F 40.7 °F 35.6 °F 71% 30.33 in 10.0 mi North 6.9 mph - N/A   Clear